Temperature
15 15 15 15 14 14 14 14 14 14 13 13 13 13 13 13 13 13 13 13 13 13 12 12 12 12 12 12 12 12 12 12 12 12 12 12 12 12 12 12 12 12 12
15 14 14 14 14 14 14 14 13 13 13 13 13 13 13 13 13 13 13 13 13 12 12 12 12 12 12 12 12 12 12 12 12 12 12 12 12 12 12 12 12 12 12
14 14 14 14 13 13 13 13 13 13 13 13 13 13 13 13 13 12 12 12 12 12 12 12 12 12 12 12 12 12 12 12 12 12 12 11 11 11 11 11 11 11 11
13 13 13 13 13 13 13 13 13 13 13 12 12 12 12 12 12 12 12 12 12 12 11 11 11 11 11 12 11 11 11 11 11 11 11 11 11 11 11 11 11 11 11
13 13 13 13 13 12 12 12 12 12 12 12 12 12 12 12 12 12 12 11 11 11 11 11 11 11 11 11 11 11 11 11 11 11 11 11 11 10 10 11 10 11 10
13 12 12 12 12 12 12 12 12 12 12 12 12 11 11 11 11 11 11 11 11 11 11 11 11 11 11 10 11 11 10 10 10 10 10 10 10 10 10 10 10 10 10
12 12 12 12 12 12 11 11 11 11 11 11 11 11 11 11 11 11 11 11 10 10 10 10 10 10 10 10 10 10 10 10 10 10 10 10 10 10 10 10 10 10 10
12 12 11 11 11 11 11 11 11 11 11 11 10 10 11 10 10 10 10 10 10 10 10 10 10 10 10 10 10 10 10 10 10 10 9 10 10 10 9 10 10 9 9
11 11 11 11 11 11 10 10 10 10 10 10 10 10 10 10 10 10 10 10 9 9 9 9 10 10 10 10 9 9 9 9 9 9 9 9 9 9 9 9 9 9 9
11 11 10 10 10 10 10 10 10 10 10 9 9 9 9 9 9 9 9 9 9 9 9 9 9 9 9 9 9 9 9 9 9 9 9 9 9 9 9 9 9 9 8
10 10 10 10 9 9 9 9 9 9 9 9 9 9 9 9 9 9 9 9 8 8 8 9 8 8 8 8 8 8 8 9 8 8 8 8 8 8 8 8 8 8 8
9 9 9 9 9 9 9 9 9 9 8 8 8 8 8 8 8 8 8 8 8 8 8 8 8 8 8 8 8 8 8 8 8 8 8 8 8 8 8 8 8 8 8
9 8 8 8 8 8 8 8 8 8 8 8 8 8 8 8 8 8 8 7 7 7 7 7 7 7 7 7 7 8 7 7 7 7 7 7 7 7 7 7 7 7 7
8 8 8 8 8 8 8 8 7 7 7 7 7 7 7 7 7 7 7 7 7 7 7 7 7 7 7 7 7 7 7 7 6 6 6 6 7 7 7 7 7 7 7
7 7 7 7 7 7 7 7 7 7 7 7 7 7 7 7 7 6 6 6 6 6 6 6 6 6 6 6 6 6 6 6 6 6 6 6 6 6 6 6 6 6 6
7 7 7 7 7 6 6 6 6 6 6 6 6 6 6 6 6 6 6 6 6 6 6 6 6 6 6 6 6 6 6 6 6 6 6 5 5 5 5 5 5 5 6
6 6 6 6 6 6 6 6 6 6 6 6 6 6 6 6 6 6 6 6 6 6 5 5 5 5 5 5 5 5 5 5 5 5 5 5 5 5 5 5 5 5 5
6 6 6 6 6 5 5 5 5 5 5 5 5 5 5 5 5 5 5 5 5 5 5 5 5 4 4 4 5 5 5 5 4 5 5 5 4 4 4 4 4 4 4
5 5 5 5 5 5 5 5 5 5 5 5 5 5 5 4 5 5 5 5 4 4 4 4 4 4 4 4 4 4 4 4 4 4 4 4 4 4 4 4 4 4 4
4 4 4 4 4 4 4 4 4 4 4 4 4 4 4 4 4 4 4 4 4 4 4 4 4 3 3 3 4 4 4 4 4 4 4 4 4 4 4 3 3 3 3
4 4 4 4 4 4 4 4 4 3 3 3 3 3 3 3 3 3 3 3 3 3 3 3 3 3 3 3 3 3 3 3 3 4 4 4 3 3 3 3 3 3 3
3 3 3 3 3 3 3 3 3 3 3 3 3 3 3 3 3 3 3 3 3 3 3 3 3 3 3 3 3 3 3 3 3 3 3 3 3 3 3 3 2 2 2
3 3 3 3 3 3 3 3 3 2 2 2 2 2 2 2 2 2 2 2 2 2 3 3 2 2 2 2 2 2 2 3 3 3 3 3 3 3 3 2 2 2 2
2 2 2 2 2 2 2 2 2 2 2 2 2 2 2 2 2 2 2 2 2 2 2 2 2 2 2 2 2 2 2 2 2 2 2 2 2 2 2 2 2 2 2
2 2 2 2 2 2 2 2 2 1 1 1 1 2 2 2 1 1 1 1 2 1 1 2 2 2 2 2 2 2 2 2 2 2 2 2 2 2 2 2 2 2 2
2 1 1 1 1 1 1 1 1 1 1 1 1 1 1 1 1 1 1 1 1 1 1 1 1 1 1 1 1 1 1 1 2 2 2 2 2 2 2 2 2 2 1
Wind_Speed
1 1 1 1 1 1 1 1 1 1 1 1 1 1 0 0 0 1 0 1 1 1 1 1 2 1 0 1 1 1 2 2 3 3 2 2 2 2 3 3 4 6 6
1 1 1 2 1 1 1 1 1 1 1 2 1 1 1 1 1 1 1 2 2 2 2 2 2 1 1 1 1 2 2 2 2 4 2 1 2 3 3 3 3 4 5
0 1 1 2 2 1 2 2 2 2 1 2 1 1 1 1 1 1 1 2 3 3 3 2 2 1 1 1 1 2 2 3 2 3 3 2 2 2 2 2 2 2 4
1 1 2 2 2 1 2 2 2 2 2 2 2 2 2 2 1 1 1 2 3 3 3 3 2 2 3 2 2 2 2 2 2 2 3 2 2 2 2 1 1 1 2
1 2 2 3 2 1 2 2 2 2 2 2 2 2 2 2 1 1 2 3 3 3 3 3 3 2 3 2 3 3 2 2 2 2 2 2 2 1 2 2 2 2 2
1 2 2 3 2 1 1 1 2 2 2 2 2 2 2 2 2 2 3 3 3 4 4 4 3 3 4 4 5 4 3 3 2 2 3 3 4 3 2 2 2 1 2
2 2 3 2 2 2 2 2 2 2 2 2 3 2 2 2 2 3 4 3 4 4 4 4 5 4 3 3 4 4 5 5 6 4 4 5 4 3 2 2 2 3 3
3 3 3 2 2 2 2 2 2 2 2 2 3 3 2 3 2 2 4 4 5 5 5 5 5 4 4 3 3 4 4 4 5 5 5 5 4 3 4 4 4 3 2
3 3 3 3 3 3 3 3 3 2 3 3 3 3 3 3 3 3 3 3 4 5 5 4 3 3 4 4 3 4 4 4 4 3 4 4 4 4 3 2 2 2 2
3 3 4 3 3 3 3 4 3 3 3 3 3 3 2 2 3 3 3 2 3 4 4 3 3 3 3 3 3 4 5 4 3 2 2 3 3 3 3 4 4 4 2
3 3 4 3 3 3 3 3 3 3 3 3 3 3 3 3 3 4 3 2 3 4 3 2 2 3 4 4 4 4 6 4 3 3 3 3 2 2 2 3 3 4 3
3 3 4 4 4 4 3 3 3 3 4 4 3 3 2 2 3 4 4 4 4 3 3 2 2 4 6 6 5 6 6 4 3 3 3 3 3 3 3 2 3 3 3
4 3 4 4 3 3 3 3 3 3 3 3 3 3 3 2 2 3 3 4 5 3 3 4 5 5 6 5 6 6 5 4 4 4 4 4 4 3 2 2 2 2 2
4 4 3 3 3 3 3 2 2 3 3 4 4 3 3 2 2 2 2 3 3 3 3 4 5 6 5 5 5 4 4 4 4 4 3 3 2 2 2 1 2 2 1
5 4 3 3 3 3 3 3 4 3 4 4 4 4 3 3 4 3 3 3 3 4 3 3 3 3 2 2 3 3 3 3 4 3 3 2 2 2 2 2 1 1 2
5 4 3 3 3 2 3 4 5 5 5 5 6 5 4 5 5 5 5 5 5 5 3 3 3 3 3 3 3 3 3 3 3 3 3 3 3 3 3 2 2 2 2
5 5 4 3 3 4 4 4 4 4 4 5 5 5 4 5 6 6 5 5 5 4 3 3 3 3 4 4 3 3 4 3 3 3 3 3 3 3 3 3 3 2 2
6 5 5 4 4 4 4 4 4 4 3 3 3 4 4 4 5 6 5 3 3 3 3 3 3 3 3 4 3 3 3 2 2 3 3 3 3 3 4 3 3 3 3
5 4 4 4 4 4 4 4 3 3 2 2 3 3 3 3 4 4 3 2 3 3 3 3 3 3 3 3 3 3 3 3 3 3 3 3 3 3 4 3 3 3 3
5 6 6 5 4 4 4 3 3 2 2 2 2 2 2 2 2 2 2 2 3 3 2 2 2 2 2 3 3 3 3 3 4 3 3 3 3 3 3 4 4 4 3
4 5 7 5 4 4 4 3 3 2 2 3 3 3 3 2 3 3 2 2 2 2 2 2 2 2 2 2 2 3 3 3 3 3 3 3 3 3 4 4 3 3 3
4 5 4 4 4 4 4 3 3 3 3 3 3 3 4 3 2 2 2 2 2 2 2 2 2 2 2 2 2 3 3 3 2 3 2 3 3 3 4 4 4 3 3
4 5 5 4 4 4 4 4 3 3 3 3 2 2 2 2 2 2 2 2 2 2 2 2 2 2 2 2 2 2 3 3 3 3 2 3 3 3 3 3 4 4 4
4 4 4 4 4 3 3 3 3 3 3 3 2 2 2 2 2 2 2 2 2 2 2 2 2 3 3 2 2 2 2 3 2 2 2 2 2 2 3 3 4 4 4
3 4 4 4 4 3 3 3 3 3 3 3 2 2 2 2 2 2 3 3 3 2 3 3 2 3 3 4 3 3 3 4 3 2 2 2 3 3 3 3 4 4 4
3 3 3 3 3 3 3 3 3 4 3 3 2 2 2 2 2 2 3 3 3 3 3 3 3 4 5 4 5 5 5 4 3 3 2 3 3 3 3 3 4 4 5
Wind_Direction
216 265 303 296 251 244 195 205 240 256 269 270 279 230 214 140 147 110 201 271 262 267 260 232 240 237 259 277 288 280 265 230 248 274 254 206 184 183 174 204 199 188 200
243 287 284 291 250 249 254 248 226 234 247 259 257 258 258 243 225 177 248 255 259 260 266 259 257 268 234 240 252 269 271 253 233 260 268 234 222 203 182 190 194 197 193
276 276 292 299 281 260 251 255 247 226 233 262 271 272 267 247 239 224 252 265 263 259 252 245 241 245 259 258 240 254 272 277 245 241 260 247 236 210 183 218 211 199 208
344 301 266 274 273 272 261 254 260 240 229 244 246 257 269 275 248 227 245 269 265 266 260 249 226 211 221 239 242 244 260 285 287 268 266 271 255 220 164 203 263 270 263
337 328 321 307 284 262 266 268 266 262 270 261 253 249 253 258 261 296 272 280 270 270 269 261 249 237 230 242 254 250 246 254 270 268 265 277 273 243 210 209 233 271 275
324 315 329 329 322 305 286 278 279 267 266 271 273 263 264 275 276 284 289 275 272 266 269 267 256 242 247 256 263 258 237 231 244 249 255 256 255 248 220 202 198 246 267
327 327 332 328 327 327 314 300 276 274 278 271 267 261 260 261 258 272 283 273 270 264 258 261 271 260 242 234 254 266 264 247 228 227 241 247 244 240 218 213 214 219 244
339 337 338 337 326 327 316 289 276 278 275 272 270 260 253 256 264 285 286 265 263 268 261 253 254 250 237 229 236 248 257 259 246 236 239 244 243 224 213 216 223 242 261
341 332 333 332 325 320 308 297 281 274 279 275 269 260 250 247 252 267 281 268 266 270 268 268 265 265 247 243 240 248 257 270 280 268 247 247 263 276 247 218 218 223 260
329 328 325 323 315 305 298 292 295 285 270 264 272 269 259 261 263 262 279 270 274 278 274 270 286 290 276 261 247 249 251 256 264 284 287 278 266 268 253 218 209 210 229
331 329 321 316 305 299 299 300 298 293 281 266 266 273 270 264 257 248 270 275 275 282 282 280 283 302 297 280 271 252 248 250 239 236 242 252 259 245 234 230 223 209 209
323 319 313 306 304 309 301 297 293 289 283 273 261 265 260 259 254 246 258 279 302 293 292 283 279 299 298 288 277 268 267 260 243 234 234 237 240 243 245 242 237 237 217
315 309 301 302 303 302 294 292 295 296 287 282 267 259 261 252 252 253 261 285 295 294 291 294 296 297 297 289 279 276 267 253 237 231 232 234 229 230 234 242 249 260 266
305 300 298 301 305 305 299 286 283 282 282 282 278 273 273 269 262 249 258 277 275 285 291 299 296 289 281 275 280 269 252 241 235 234 235 237 224 221 230 231 230 230 250
306 305 304 300 291 294 302 293 281 272 268 273 274 270 268 265 264 271 275 280 281 275 288 293 294 287 279 275 272 264 253 241 237 228 223 227 228 227 233 222 214 223 228
315 312 306 302 295 285 283 302 301 280 289 284 281 276 277 267 265 266 271 278 281 278 285 269 273 274 274 271 265 262 258 246 236 230 221 217 217 221 228 220 203 204 226
317 317 315 307 302 295 286 279 288 291 284 287 286 284 274 276 274 270 269 270 268 264 261 254 255 261 267 267 261 253 253 251 243 231 222 215 216 222 223 217 214 212 227
325 324 320 313 305 298 293 289 286 281 283 284 283 275 271 276 283 278 270 268 266 256 245 247 254 263 270 267 259 257 254 250 244 236 226 219 217 219 221 214 212 214 218
326 322 319 314 307 303 302 302 295 283 278 285 292 290 281 286 290 279 270 256 252 255 257 257 256 262 265 267 265 262 255 245 239 228 221 221 220 218 220 213 208 212 212
325 322 322 317 315 315 317 319 316 307 295 286 283 293 307 310 300 282 266 264 264 269 274 273 274 275 274 272 271 268 264 252 241 231 221 215 216 213 212 214 210 208 213
330 326 323 322 321 323 324 322 317 308 300 296 291 287 292 288 277 278 275 269 263 273 283 278 282 291 289 288 284 279 268 262 252 235 224 216 214 214 210 210 213 212 208
331 327 325 322 321 321 319 316 313 303 292 292 291 288 291 287 282 281 279 282 275 262 271 274 270 275 275 269 270 279 270 261 259 256 234 221 220 217 209 207 204 203 204
321 318 318 317 316 320 321 318 313 307 304 303 299 287 282 289 291 289 288 291 291 286 288 279 273 283 287 286 274 265 264 256 251 247 237 224 220 220 210 203 199 194 194
313 312 313 315 317 315 313 312 311 308 304 299 300 304 302 307 316 317 313 313 313 312 304 292 288 287 290 291 281 281 274 272 258 247 237 230 227 216 209 201 197 197 194
306 306 309 313 314 314 313 311 311 308 306 309 312 318 321 323 325 323 318 317 309 304 306 302 294 291 289 288 282 279 289 288 274 260 236 216 207 207 213 204 196 194 198
297 298 303 305 306 307 305 304 303 304 303 311 317 320 321 319 317 314 311 313 314 309 302 298 291 291 287 279 278 278 275 266 254 250 230 216 211 216 218 212 202 201 198
Height
1517 1518 1518 1518 1519 1519 1519 1519 1519 1520 1520 1520 1520 1520 1520 1521 1520 1520 1520 1521 1521 1521 1521 1522 1522 1522 1522 1522 1522 1522 1523 1523 1522 1521 1522 1522 1521 1521 1520 1520 1520 1520 1520
1515 1515 1515 1515 1516 1516 1516 1516 1516 1517 1517 1517 1517 1517 1518 1518 1518 1518 1518 1518 1518 1518 1518 1519 1519 1519 1519 1519 1519 1519 1519 1520 1520 1519 1519 1519 1518 1518 1518 1518 1517 1517 1517
1512 1512 1512 1512 1512 1512 1513 1513 1513 1513 1514 1514 1514 1515 1515 1515 1515 1515 1515 1515 1515 1515 1515 1516 1516 1516 1516 1516 1516 1516 1516 1516 1516 1516 1515 1516 1515 1515 1515 1515 1515 1515 1515
1509 1509 1509 1509 1509 1509 1510 1510 1510 1510 1510 1511 1511 1511 1511 1511 1512 1512 1511 1511 1512 1512 1512 1513 1513 1513 1513 1513 1513 1513 1513 1513 1512 1512 1512 1512 1512 1512 1512 1512 1511 1512 1512
1507 1506 1506 1506 1506 1506 1506 1506 1506 1507 1507 1507 1507 1507 1508 1508 1508 1508 1508 1508 1508 1508 1508 1509 1509 1509 1509 1509 1509 1509 1509 1509 1509 1508 1508 1508 1508 1508 1508 1508 1508 1508 1509
1505 1504 1503 1503 1502 1502 1503 1503 1503 1503 1503 1503 1503 1503 1504 1504 1504 1504 1504 1504 1504 1504 1504 1504 1505 1505 1505 1505 1506 1506 1506 1505 1505 1505 1504 1504 1504 1505 1505 1505 1505 1505 1505
1502 1502 1501 1500 1499 1499 1499 1499 1499 1499 1499 1499 1499 1500 1500 1500 1500 1500 1500 1500 1500 1500 1500 1500 1500 1500 1501 1501 1501 1501 1501 1501 1501 1501 1501 1501 1501 1501 1501 1501 1501 1501 1501
1500 1499 1498 1497 1496 1495 1495 1495 1495 1495 1495 1495 1495 1495 1495 1496 1496 1496 1495 1495 1495 1495 1496 1496 1496 1496 1496 1496 1496 1496 1496 1496 1497 1497 1497 1497 1497 1497 1497 1497 1497 1497 1498
1497 1496 1495 1494 1493 1492 1492 1492 1492 1492 1491 1491 1491 1491 1491 1491 1491 1491 1491 1491 1491 1491 1491 1491 1491 1491 1491 1491 1491 1491 1491 1491 1492 1492 1492 1492 1492 1493 1493 1493 1493 1493 1493
1494 1493 1492 1490 1490 1489 1489 1488 1488 1488 1487 1487 1487 1487 1487 1486 1487 1487 1486 1486 1486 1486 1486 1486 1486 1486 1486 1486 1486 1486 1485 1485 1486 1486 1487 1487 1487 1487 1488 1489 1489 1489 1488
1492 1491 1489 1488 1487 1486 1486 1485 1485 1484 1484 1483 1482 1482 1482 1482 1482 1482 1482 1482 1482 1481 1481 1480 1480 1481 1481 1481 1481 1481 1481 1481 1481 1481 1481 1481 1481 1482 1483 1483 1484 1485 1485
1490 1488 1487 1485 1484 1483 1483 1482 1481 1480 1479 1479 1478 1478 1478 1478 1478 1478 1478 1478 1478 1477 1476 1475 1475 1475 1476 1476 1475 1475 1476 1476 1476 1476 1475 1475 1476 1476 1477 1478 1479 1480 1481
1487 1485 1484 1482 1481 1480 1479 1478 1477 1476 1475 1474 1474 1473 1473 1473 1473 1474 1474 1474 1473 1473 1472 1471 1470 1470 1470 1470 1470 1469 1470 1470 1470 1470 1470 1470 1471 1472 1472 1473 1474 1475 1476
1484 1482 1481 1479 1478 1477 1476 1475 1473 1472 1471 1470 1470 1469 1469 1469 1469 1469 1468 1469 1469 1468 1467 1466 1466 1465 1465 1464 1464 1464 1464 1464 1464 1464 1465 1465 1466 1467 1467 1468 1468 1469 1470
1481 1479 1477 1476 1474 1473 1471 1471 1469 1468 1468 1467 1466 1465 1464 1464 1464 1464 1464 1464 1463 1463 1462 1461 1460 1460 1459 1459 1459 1458 1458 1458 1459 1459 1460 1460 1461 1461 1462 1463 1463 1464 1465
1477 1476 1474 1472 1470 1469 1467 1466 1465 1464 1463 1463 1462 1462 1460 1460 1460 1460 1459 1459 1459 1459 1458 1456 1455 1455 1455 1454 1454 1453 1453 1453 1453 1454 1454 1455 1455 1456 1457 1458 1459 1459 1459
1474 1472 1470 1468 1466 1465 1463 1461 1458 1458 1458 1458 1457 1457 1456 1456 1456 1455 1455 1454 1454 1454 1453 1452 1451 1451 1450 1450 1450 1449 1449 1449 1449 1449 1449 1450 1451 1452 1453 1453 1454 1455 1455
1470 1469 1467 1464 1462 1460 1458 1456 1454 1452 1452 1452 1453 1453 1452 1452 1451 1450 1450 1450 1449 1448 1448 1447 1447 1447 1446 1446 1445 1445 1445 1444 1444 1444 1445 1445 1446 1447 1448 1448 1449 1450 1451
1467 1465 1463 1461 1459 1457 1455 1452 1450 1449 1449 1448 1448 1449 1448 1448 1447 1447 1446 1445 1444 1443 1443 1443 1443 1442 1441 1441 1441 1440 1440 1440 1440 1440 1440 1441 1442 1443 1443 1444 1445 1446 1447
1464 1462 1460 1458 1455 1453 1451 1449 1448 1447 1446 1445 1445 1445 1444 1444 1443 1442 1442 1441 1441 1440 1439 1438 1438 1437 1437 1436 1436 1435 1435 1435 1435 1436 1436 1436 1437 1438 1438 1439 1440 1442 1443
1461 1459 1457 1455 1452 1451 1449 1447 1446 1445 1444 1443 1442 1442 1441 1441 1439 1439 1438 1438 1437 1436 1435 1434 1434 1433 1432 1432 1431 1430 1430 1430 1430 1431 1431 1432 1432 1433 1434 1435 1436 1437 1438
1458 1456 1454 1452 1450 1448 1446 1445 1443 1443 1441 1440 1439 1439 1438 1438 1437 1436 1435 1434 1433 1433 1432 1431 1430 1429 1428 1428 1427 1426 1425 1425 1426 1426 1426 1427 1428 1428 1429 1430 1431 1433 1434
1456 1454 1452 1450 1448 1446 1444 1443 1441 1440 1439 1438 1437 1436 1435 1435 1434 1433 1432 1431 1430 1429 1428 1427 1426 1425 1424 1424 1423 1422 1421 1421 1421 1422 1422 1423 1423 1424 1425 1426 1427 1428 1430
1453 1451 1449 1447 1446 1444 1442 1441 1439 1438 1437 1435 1434 1434 1433 1432 1431 1430 1429 1428 1427 1426 1425 1424 1423 1422 1421 1420 1419 1418 1417 1417 1417 1418 1418 1419 1419 1420 1421 1422 1423 1425 1426
1450 1449 1447 1445 1443 1441 1440 1438 1437 1436 1435 1433 1432 1431 1430 1429 1427 1426 1425 1424 1423 1422 1421 1420 1419 1418 1417 1415 1414 1413 1413 1413 1413 1413 1414 1414 1415 1416 1417 1418 1420 1421 1423
1447 1446 1444 1442 1441 1439 1437 1436 1435 1433 1432 1430 1429 1428 1427 1425 1424 1423 1422 1421 1420 1419 1417 1416 1415 1413 1412 1411 1410 1409 1409 1409 1409 1409 1410 1410 1411 1412 1413 1415 1416 1418 1419